Regional Weather Roundup
Issued by NWS Grand Forks, ND

Home | Current Version | Previous Version | Graphics & Text | Print | Product List | Glossary On
Versions: 1 2 3 4 5 6 7 8 9 10 11 12 13 14 15 16 17 18 19 20 21 22 23 24 25 26 27 28 29 30 31 32 33 34 35 36 37 38 39 40 41 42 43 44 45 46 47 48 49 50
454
ASUS43 KFGF 290110
RWRFGF
PRAIRIE TO PINES  WEATHER ROUNDUP
NATIONAL WEATHER SERVICE EASTERN NORTH DAKOTA/GRAND FORKS ND
800 PM CDT WED SEP 28 2016

 **SATELLITE DATA USED TO AUGMENT SKY COVER AT AUTOMATED STATIONS**
 *****  WEATHER ACROSS EASTERN NORTH DAKOTA  *****

CITY           SKY/WX    TMP DP  RH WIND       PRES   REMARKS
GRAND FORKS    PTCLDY    51  46  83 N5        30.37R
GRAND FRKS AFB CLEAR     50  45  81 E2        30.37S
GRAND FRKS NWS   N/A     50 N/A N/A VRB1        N/A
DEVILS LAKE    CLEAR     52  47  83 CALM      30.37R
FARGO          CLEAR     55  46  71 NE8       30.36R
WAHPETON ARPT  CLEAR     54  45  71 E3        30.36R
$$

 ***** WEATHER ACROSS CENTRAL AND WESTERN NORTH DAKOTA  *****

CITY           SKY/WX    TMP DP  RH WIND       PRES   REMARKS
BISMARCK       CLEAR     56  47  71 E9        30.33R
MINOT          CLEAR     57  44  62 E8        30.32R
JAMESTOWN      CLEAR     51  44  77 E6        30.35R HAZE
MINOT AFB      CLEAR     54  42  64 SE8       30.31R
GARRISON         N/A     57  43  59 E9        30.31R
WILLISTON      CLEAR     67  48  50 SE10      30.25R
DICKINSON      CLEAR     58  40  51 E10       30.27S
HETTINGER      CLEAR     63  43  48 E10       30.30R
$$

 *****  OTHER AIRPORT OBSERVATIONS IN OUR AREA  *****

CITY           SKY/WX    TMP DP  RH WIND       PRES   REMARKS
WALHALLA       FAIR      54  48  82 CALM      30.37R
GRAFTON AIRPOR FAIR      54  50  87 SE5       30.39R
VALLEY CITY AR FAIR      54  46  76 E7        30.38R
CANDO          FAIR      52  50  93 CALM      30.38R
CAVALIER APRT  FAIR      54  48  82 SE3       30.37S
GWINNER        FAIR      54  46  76 CALM      30.36R
ROLLA          FAIR      54  46  76 SE6       30.37R
 ***** THE ABOVE OBSERVATIONS ARE NON NWS ARE NOT QUALITY
       CONTROLLED AND MAY MIS-REPORT RAIN FOR SNOW...
$$

  *****  WEATHER ACROSS NORTHERN MINNESOTA  *****

CITY           SKY/WX    TMP DP  RH WIND       PRES   REMARKS
FLAG ISLAND    CLOUDY    57  50  77 NW5       30.38R
WARROAD        CLOUDY    52  48  87 CALM      30.40R
ROSEAU         CLOUDY    55  50  82 CALM      30.39R
HALLOCK        CLEAR     54  48  82 E6        30.38R FOG
THF RVR FALLS  CLOUDY    55  49  80 E3        30.39R
BAUDETTE       CLOUDY    54  49  83 CALM      30.39R
WASKISH        CLOUDY    54  52  94 CALM      30.39R
CROOKSTON      CLOUDY    57  48  72 NE3       30.38R
GREENBUSH NDAW   N/A     52  48  87 NE2         N/A
$$
  *****  WEATHER ACROSS CENTRAL AND WEST MINNESOTA  *****

CITY           SKY/WX    TMP DP  RH WIND       PRES   REMARKS
FOSSTON        CLOUDY    52  45  76 CALM      30.39R
BEMIDJI        CLOUDY    53  48  82 CALM      30.38R
PARK RAPIDS    CLOUDY    57  45  64 E5        30.37R
ELBOW LAKE     FAIR      55  48  76 CALM      30.35R
WADENA         CLOUDY    55  45  67 E5        30.36S
DETROIT LAKES  PTCLDY    55  46  71 E3        30.37R
MOORHEAD       CLEAR     55  46  71 NE7       30.37R
FERGUS FALLS   CLEAR     55  46  71 CALM      30.37R
MORRIS MN      PTCLDY    54  46  76 NE5       30.33S
STAPLES        CLOUDY    55  45  67 CALM      30.37R
$$
  *****  WEATHER ELSEWHERE ACROSS MINNESOTA  *****

CITY           SKY/WX    TMP DP  RH WIND       PRES   REMARKS
DULUTH         CLOUDY    53  50  89 E3        30.35R
INTRNTL FALLS  CLOUDY    55  48  77 N5        30.38R
ELY            CLOUDY    54  48  82 CALM      30.37R
CLOQUET        CLOUDY    54  46  76 CALM      30.36R
WHEATON        NOT AVBL
BRAINERD       CLOUDY    55  47  74 CALM      30.37R
HIBBING        CLOUDY    54  49  83 N5        30.36R
ALEXANDRIA     CLOUDY    57  48  72 NE7       30.36R
SAINT CLOUD    PTCLDY    53  48  83 N3        30.34R
MINNEAPOLIS    MOCLDY    59  48  67 N8        30.31R
$$

  *****  WEATHER ACROSS SOUTH DAKOTA  *****

CITY           SKY/WX    TMP DP  RH WIND       PRES   REMARKS
SIOUX FALLS    CLEAR     53  46  77 CALM      30.32R
BROOKINGS      CLEAR     53  46  77 NE3       30.33R
WATERTOWN      CLEAR     50  44  80 NE5       30.33R
HURON          CLEAR     55  44  66 E6        30.31R
SISSETON         N/A     48  44  86 N5        30.34R
ABERDEEN         N/A     53  41  63 NE6       30.34R
MITCHELL       CLEAR     57  43  59 NE3       30.31R
PIERRE         CLEAR     58  42  55 E6        30.29R
MOBRIDGE       CLEAR     56  45  66 NE7       30.30R
RAPID CITY     CLEAR     62  43  49 E12       30.29R
$$

  *****  SOME WEATHER IN NEARBY STATES *****

CITY           SKY/WX    TMP DP  RH WIND       PRES   REMARKS
GLASGOW MT     CLEAR     65  50  58 E8        30.18F
GREAT FALLS MT CLEAR     62  47  57 N5        30.14S
CHEYENNE WY    CLEAR     65  36  34 E10       30.36R
SCOTTSBLUFF NE CLEAR     65  46  50 E5        30.28R
OMAHA NE       PTCLDY    55  47  74 N6        30.27R
DES MOINES IA  CLOUDY    60  49  66 N7        30.23R
DAVENPORT IA   PTCLDY    55  50  83 N9        30.16R
CHICAGO IL     CLOUDY    55  52  89 N14G24    30.05F
EAU CLAIRE WI  PTCLDY    57  51  80 N9        30.27R
LA CROSSE WI   PTCLDY    58  51  78 N5        30.22R
$$

  *****  SOME NATIONAL WEATHER *****

CITY           SKY/WX    TMP DP  RH WIND       PRES   REMARKS
LA GUARDIA NY  CLOUDY    64  56  75 NE18G26   30.22R
RALEIGH NC     MOCLDY    72  65  78 S7        29.95S THUNDER
ATLANTA GA     CLEAR     76  48  37 SW6       29.93R
NEW ORLEANS LA PTCLDY    84  70  62 W5        29.99R
OKLAHOMA CITY  PTCLDY    75  46  35 N12       30.11R
ALBUQUERQUE NM CLOUDY    78  43  28 S3        30.25R
SALT LAKE CITY CLOUDY    73  53  49 N6        30.12R
LOS ANGELES CA PTCLDY    79  57  46 W10       29.90R
BOISE ID       CLEAR     88  33  14 SE12      29.91S
SEATTLE WA     PTCLDY    66  48  52 NW12G28   30.06S
$$

*** WEATHER ACROSS MANITOBA...SASKATCHEWAN AND ONTARIO ***
                ***ONTARIO***

CITY           SKY/WX    TMP DP  RH WIND       PRES   REMARKS
GERALDTON      CLOUDY    54  50  87 N2        30.38R
THUNDER BAY    MOCLDY    55  48  76 E3        30.36R
SIOUX LOOKOUT  CLOUDY    52  48  87 CALM      30.40R
TORONTO        MOCLDY    66  57  72 E16G23    30.13R
BIG TROUT LK   MOCLDY    50  45  81 NW8       30.34R
PICKLE LAKE    CLOUDY    54  46  76 W3        30.38R
DRYDEN         CLOUDY    54  48  82 N5        30.40R
KENORA         CLOUDY    54  50  87 VRB2      30.39S
$$
                *** MANITOBA***

CITY           SKY/WX    TMP DP  RH WIND       PRES   REMARKS
BRANDON        CLEAR     55  41  58 E8        30.35R
DAUPHIN        CLEAR     54  48  82 E2        30.35R
ISLAND LAKE    PTCLDY    50  48  93 SE2       30.35R
PILOT MOUND      N/A     52  46  82 E6          N/A
THE PAS        MOCLDY    50  43  76 CALM      30.36S
THOMPSON       PTCLDY    45  36  70 CALM      30.32R
WINNIPEG       CLEAR     54  46  76 SE7       30.38R
LYNN LAKE      CLEAR     45  32  61 SW6       30.30R
CHURCHILL      PTCLDY    52  37  58 W13       30.13R
GILLAM         PTCLDY    55  37  50 W10       30.28R
$$
                ***SASKATCHEWAN***

CITY           SKY/WX    TMP DP  RH WIND       PRES   REMARKS
ESTEVAN        PTCLDY    59  39  47 E10       30.28R
KINDERSLEY     CLOUDY    46  41  81 E12       30.27S
LLOYDMINSTER   CLOUDY    54  34  47 S9        30.29F
PRINCE ALBERT  CLOUDY    55  37  50 S2        30.34F
REGINA         MOCLDY    61  45  55 NE10      30.25S
YORKTON        MOCLDY    55  46  71 N5        30.31R
N. BATTLEFORD  CLOUDY    52  39  62 CALM      30.34S
LA RONGE       PTCLDY    48  37  66 S3        30.34S
SASKATOON      LGT RAIN  48  45  87 NE8       30.35F
SWIFT CURRENT  MOCLDY    52  39  62 NE12      30.25S
$$
NOTE: THESE ARE AUTOMATED STATIONS WITH LIMITED QUALITY CONTROL
      "FAIR" INDICATES FEW OR NO CLOUDS BELOW 12,000 FEET WITH NO
      SIGNIFICANT WEATHER AND/OR OBSTRUCTIONS TO VISIBILITY.
      SKY/WX - SKY CONDITION AND SIGNIFICANT WEATHER.
      TMP - AIR TEMPERATURE.    DP   - DEWPOINT TEMPERATURE.
      RH  - RELATIVE HUMIDITY.  PRES - PRESSURE.
      HX  - HEAT INDEX.         WCI  - WIND CHILL INDEX.
$




USA.gov is the U.S. government's official web portal to all federal, state and local government web resources and services.